Location: Unspecified
(49.2170°N, 0.0000°E)
Time: 15:14:24
(UTC+00:00)

Tiros 1 despin weight - Pass Details

Date: 28 January 2021
Orbit: 593 x 642 km, 48.2° (Epoch: 07 March)

Event Time Altitude Azimuth Distance (km) Brightness Sun altitude
Rises 14:36:10 0° 255° (WSW) 2,896 ? 15.6°
Reaches altitude 10° 14:38:29 10° 254° (WSW) 1,983 ? 15.4°
Maximum altitude 14:43:02 73° 171° (S) 644 ? 15.0°
Drops below altitude 10° 14:47:30 10° 87° (E) 1,954 ? 14.5°
Sets 14:49:47 0° 85° (E) 2,851 ? 14.3°
